Time,TemperatureF,DewpointF,PressureIn,WindDirection,WindDirectionDegrees,WindSpeedMPH,WindSpeedGustMPH,Humidity,HourlyPrecipIn,Conditions,Clouds,dailyrainin,SolarRadiationWatts/m^2,SoftwareType,DateUTC
2013-06-29 00:22:00,52.0,51.0,-100.00,ENE,64,2.0,4.0,97,0.00,,,0.03,0.000000,,2013-06-29 08:22:00,
2013-06-29 00:33:00,52.0,51.0,-100.00,ENE,64,2.0,4.0,97,0.00,,,0.03,0.000000,,2013-06-29 08:33:00,
2013-06-29 00:43:00,52.0,51.0,-100.00,ENE,64,2.0,4.0,97,0.00,,,0.03,0.000000,,2013-06-29 08:43:00,
2013-06-29 00:52:00,52.0,51.0,-100.00,ENE,64,2.0,4.0,97,0.00,,,0.03,0.000000,,2013-06-29 08:52:00,
2013-06-29 01:22:00,52.0,51.0,-100.00,North,10,3.0,4.0,96,0.00,,,0.03,0.000000,,2013-06-29 09:22:00,
2013-06-29 01:33:00,52.0,51.0,-100.00,North,10,3.0,4.0,96,0.00,,,0.03,0.000000,,2013-06-29 09:33:00,
2013-06-29 01:42:00,52.0,51.0,-100.00,North,10,3.0,4.0,96,0.00,,,0.03,0.000000,,2013-06-29 09:42:00,
2013-06-29 01:53:00,52.0,51.0,-100.00,North,10,3.0,4.0,96,0.00,,,0.03,0.000000,,2013-06-29 09:53:00,
2013-06-29 02:22:00,51.0,50.0,-100.00,ESE,120,3.0,5.0,96,0.00,,,0.03,0.000000,,2013-06-29 10:22:00,
2013-06-29 02:33:00,51.0,50.0,-100.00,ESE,120,3.0,5.0,96,0.00,,,0.03,0.000000,,2013-06-29 10:33:00,
2013-06-29 02:43:00,51.0,50.0,-100.00,ESE,120,3.0,5.0,96,0.00,,,0.03,0.000000,,2013-06-29 10:43:00,
2013-06-29 02:52:00,51.0,50.0,-100.00,ESE,120,3.0,5.0,96,0.00,,,0.03,0.000000,,2013-06-29 10:52:00,
2013-06-29 03:23:00,52.0,49.0,-100.00,NE,39,2.0,6.0,90,0.00,,,0.03,0.000000,,2013-06-29 11:23:00,
2013-06-29 03:33:00,52.0,49.0,-100.00,NE,39,2.0,6.0,90,0.00,,,0.03,0.000000,,2013-06-29 11:33:00,
2013-06-29 03:43:00,52.0,49.0,-100.00,NE,39,2.0,6.0,90,0.00,,,0.03,0.000000,,2013-06-29 11:43:00,
2013-06-29 03:53:00,52.0,49.0,-100.00,NE,39,2.0,6.0,90,0.00,,,0.03,0.000000,,2013-06-29 11:53:00,
2013-06-29 04:22:00,51.0,49.0,-100.00,North,9,1.0,3.0,94,0.00,,,0.03,0.000000,,2013-06-29 12:22:00,
2013-06-29 04:34:00,51.0,49.0,-100.00,North,9,1.0,3.0,94,0.00,,,0.03,0.000000,,2013-06-29 12:34:00,
2013-06-29 04:43:00,51.0,49.0,-100.00,North,9,1.0,3.0,94,0.00,,,0.03,0.000000,,2013-06-29 12:43:00,
2013-06-29 04:52:00,51.0,49.0,-100.00,North,9,1.0,3.0,94,0.00,,,0.03,0.000000,,2013-06-29 12:52:00,
2013-06-29 05:23:00,51.0,50.0,-100.00,ENE,74,2.0,3.0,96,0.00,,,0.03,0.000000,,2013-06-29 13:23:00,
2013-06-29 05:34:00,51.0,50.0,-100.00,ENE,74,2.0,3.0,96,0.00,,,0.03,0.000000,,2013-06-29 13:34:00,
2013-06-29 05:43:00,51.0,50.0,-100.00,ENE,74,2.0,3.0,96,0.00,,,0.03,0.000000,,2013-06-29 13:43:00,
2013-06-29 05:53:00,51.0,50.0,-100.00,ENE,74,2.0,3.0,96,0.00,,,0.03,0.000000,,2013-06-29 13:53:00,
2013-06-29 06:23:00,51.0,50.0,-100.00,North,352,1.0,2.0,96,0.00,,,0.03,8.000000,,2013-06-29 14:23:00,
2013-06-29 06:33:00,51.0,50.0,-100.00,North,352,1.0,2.0,96,0.00,,,0.03,8.000000,,2013-06-29 14:33:00,
2013-06-29 06:44:00,51.0,50.0,-100.00,North,352,1.0,2.0,96,0.00,,,0.03,8.000000,,2013-06-29 14:44:00,
2013-06-29 06:53:00,51.0,50.0,-100.00,North,352,1.0,2.0,96,0.00,,,0.03,8.000000,,2013-06-29 14:53:00,
2013-06-29 07:22:00,51.0,50.0,-100.00,North,359,1.0,3.0,96,0.00,,,0.03,13.000000,,2013-06-29 15:22:00,
2013-06-29 07:33:00,51.0,50.0,-100.00,North,359,1.0,3.0,96,0.00,,,0.03,13.000000,,2013-06-29 15:33:00,
2013-06-29 07:42:00,51.0,50.0,-100.00,North,359,1.0,3.0,96,0.00,,,0.03,13.000000,,2013-06-29 15:42:00,
2013-06-29 07:53:00,51.0,50.0,-100.00,North,359,1.0,3.0,96,0.00,,,0.03,13.000000,,2013-06-29 15:53:00,
2013-06-29 08:22:00,51.0,50.0,-100.00,NW,326,0.0,3.0,97,0.00,,,0.03,24.000000,,2013-06-29 16:22:00,
2013-06-29 08:33:00,51.0,50.0,-100.00,NW,326,0.0,3.0,97,0.00,,,0.03,24.000000,,2013-06-29 16:33:00,
2013-06-29 08:43:00,51.0,50.0,-100.00,NW,326,0.0,3.0,97,0.00,,,0.03,24.000000,,2013-06-29 16:43:00,
2013-06-29 08:53:00,51.0,50.0,-100.00,NW,326,0.0,3.0,97,0.00,,,0.03,24.000000,,2013-06-29 16:53:00,
2013-06-29 09:22:00,51.0,50.0,-100.00,WSW,238,1.0,2.0,97,0.00,,,0.03,32.000000,,2013-06-29 17:22:00,
2013-06-29 09:33:00,51.0,50.0,-100.00,WSW,238,1.0,2.0,97,0.00,,,0.03,32.000000,,2013-06-29 17:33:00,
2013-06-29 09:42:00,51.0,50.0,-100.00,WSW,238,1.0,2.0,97,0.00,,,0.03,32.000000,,2013-06-29 17:42:00,
2013-06-29 09:52:00,51.0,50.0,-100.00,WSW,238,1.0,2.0,97,0.00,,,0.03,32.000000,,2013-06-29 17:52:00,
2013-06-29 10:22:00,51.0,50.0,-100.00,South,185,1.0,3.0,97,0.00,,,0.03,57.000000,,2013-06-29 18:22:00,
2013-06-29 10:34:00,51.0,50.0,-100.00,South,185,1.0,3.0,97,0.00,,,0.03,57.000000,,2013-06-29 18:34:00,
2013-06-29 10:43:00,51.0,50.0,-100.00,South,185,1.0,3.0,97,0.00,,,0.03,57.000000,,2013-06-29 18:43:00,
2013-06-29 10:52:00,51.0,50.0,-100.00,South,185,1.0,3.0,97,0.00,,,0.03,57.000000,,2013-06-29 18:52:00,
2013-06-29 11:34:00,54.0,52.0,-100.00,SSW,205,3.0,6.0,94,0.00,,,0.03,174.000000,,2013-06-29 19:34:00,
2013-06-29 11:43:00,54.0,52.0,-100.00,SSW,205,3.0,6.0,94,0.00,,,0.03,174.000000,,2013-06-29 19:43:00,
2013-06-29 11:54:00,54.0,52.0,-100.00,SSW,205,3.0,6.0,94,0.00,,,0.03,174.000000,,2013-06-29 19:54:00,
2013-06-29 12:23:00,56.0,50.0,-100.00,SW,227,3.0,5.0,80,0.00,,,0.02,236.000000,,2013-06-29 20:23:00,
2013-06-29 12:33:00,56.0,50.0,-100.00,SW,227,3.0,5.0,80,0.00,,,0.02,236.000000,,2013-06-29 20:33:00,
2013-06-29 12:43:00,56.0,50.0,-100.00,SW,227,3.0,5.0,80,0.00,,,0.02,236.000000,,2013-06-29 20:43:00,
2013-06-29 12:52:00,56.0,50.0,-100.00,SW,227,3.0,5.0,80,0.00,,,0.02,236.000000,,2013-06-29 20:52:00,
2013-06-29 13:22:00,58.0,51.0,-100.00,WNW,288,3.0,5.0,77,0.00,,,0.02,338.000000,,2013-06-29 21:22:00,
2013-06-29 13:32:00,58.0,51.0,-100.00,WNW,288,3.0,5.0,77,0.00,,,0.02,338.000000,,2013-06-29 21:32:00,
2013-06-29 13:42:00,58.0,51.0,-100.00,WNW,288,3.0,5.0,77,0.00,,,0.02,338.000000,,2013-06-29 21:42:00,
2013-06-29 13:52:00,58.0,51.0,-100.00,WNW,288,3.0,5.0,77,0.00,,,0.02,338.000000,,2013-06-29 21:52:00,
2013-06-29 14:33:00,60.0,52.0,-100.00,WSW,246,2.0,5.0,74,0.00,,,0.02,368.000000,,2013-06-29 22:33:00,
2013-06-29 14:43:00,60.0,52.0,-100.00,WSW,246,2.0,5.0,74,0.00,,,0.02,368.000000,,2013-06-29 22:43:00,
2013-06-29 14:53:00,60.0,52.0,-100.00,WSW,246,2.0,5.0,74,0.00,,,0.02,368.000000,,2013-06-29 22:53:00,
2013-06-29 15:23:00,60.0,50.0,-100.00,SW,222,3.0,6.0,70,0.00,,,0.02,373.000000,,2013-06-29 23:23:00,
2013-06-29 15:33:00,60.0,50.0,-100.00,SW,222,3.0,6.0,70,0.00,,,0.02,373.000000,,2013-06-29 23:33:00,
2013-06-29 15:43:00,60.0,50.0,-100.00,SW,222,3.0,6.0,70,0.00,,,0.02,373.000000,,2013-06-29 23:43:00,
2013-06-29 15:52:00,60.0,50.0,-100.00,SW,222,3.0,6.0,70,0.00,,,0.02,373.000000,,2013-06-29 23:52:00,
2013-06-29 16:33:00,61.0,51.0,-100.00,WSW,243,3.0,6.0,69,0.00,,,0.02,390.000000,,2013-06-30 00:33:00,
2013-06-29 16:42:00,61.0,51.0,-100.00,WSW,243,3.0,6.0,69,0.00,,,0.02,390.000000,,2013-06-30 00:42:00,
2013-06-29 16:52:00,61.0,51.0,-100.00,WSW,243,3.0,6.0,69,0.00,,,0.02,390.000000,,2013-06-30 00:52:00,
2013-06-29 17:22:00,61.0,51.0,-100.00,WSW,250,3.0,6.0,70,0.00,,,0.02,327.000000,,2013-06-30 01:22:00,
2013-06-29 17:33:00,61.0,51.0,-100.00,WSW,250,3.0,6.0,70,0.00,,,0.02,327.000000,,2013-06-30 01:33:00,
2013-06-29 17:44:00,61.0,51.0,-100.00,WSW,250,3.0,6.0,70,0.00,,,0.02,327.000000,,2013-06-30 01:44:00,
2013-06-29 17:53:00,61.0,51.0,-100.00,WSW,250,3.0,6.0,70,0.00,,,0.02,327.000000,,2013-06-30 01:53:00,
2013-06-29 18:33:00,61.0,52.0,-100.00,WSW,250,2.0,5.0,71,0.00,,,0.01,249.000000,,2013-06-30 02:33:00,
2013-06-29 18:43:00,61.0,52.0,-100.00,WSW,250,2.0,5.0,71,0.00,,,0.01,249.000000,,2013-06-30 02:43:00,
2013-06-29 18:53:00,61.0,52.0,-100.00,WSW,250,2.0,5.0,71,0.00,,,0.01,249.000000,,2013-06-30 02:53:00,
2013-06-29 19:23:00,60.0,52.0,-100.00,North,6,3.0,5.0,75,0.00,,,0.01,167.000000,,2013-06-30 03:23:00,
2013-06-29 19:33:00,60.0,52.0,-100.00,North,6,3.0,5.0,75,0.00,,,0.01,167.000000,,2013-06-30 03:33:00,
2013-06-29 19:43:00,60.0,52.0,-100.00,North,6,3.0,5.0,75,0.00,,,0.01,167.000000,,2013-06-30 03:43:00,
2013-06-29 19:53:00,60.0,52.0,-100.00,North,6,3.0,5.0,75,0.00,,,0.01,167.000000,,2013-06-30 03:53:00,
2013-06-29 20:33:00,62.0,54.0,-100.00,SE,144,1.0,4.0,74,0.00,,,0.01,118.000000,,2013-06-30 04:33:00,
2013-06-29 20:43:00,62.0,54.0,-100.00,SE,144,1.0,4.0,74,0.00,,,0.01,118.000000,,2013-06-30 04:43:00,
2013-06-29 20:52:00,62.0,54.0,-100.00,SE,144,1.0,4.0,74,0.00,,,0.01,118.000000,,2013-06-30 04:52:00,
2013-06-29 21:33:00,61.0,54.0,-100.00,South,178,1.0,3.0,79,0.00,,,0.01,52.000000,,2013-06-30 05:33:00,
2013-06-29 21:43:00,61.0,54.0,-100.00,South,178,1.0,3.0,79,0.00,,,0.01,52.000000,,2013-06-30 05:43:00,
2013-06-29 21:53:00,61.0,54.0,-100.00,South,178,1.0,3.0,79,0.00,,,0.01,52.000000,,2013-06-30 05:53:00,
2013-06-29 22:23:00,60.0,52.0,-100.00,SSE,166,6.0,11.0,75,0.00,,,0.00,23.000000,,2013-06-30 06:23:00,
2013-06-29 22:33:00,60.0,52.0,-100.00,SSE,166,6.0,11.0,75,0.00,,,0.00,23.000000,,2013-06-30 06:33:00,
2013-06-29 22:43:00,60.0,52.0,-100.00,SSE,166,6.0,11.0,75,0.00,,,0.00,23.000000,,2013-06-30 06:43:00,
2013-06-29 22:53:00,60.0,52.0,-100.00,SSE,166,6.0,11.0,75,0.00,,,0.00,23.000000,,2013-06-30 06:53:00,
2013-06-29 23:53:00,60.0,49.0,-100.00,SSE,157,5.0,9.0,68,0.00,,,0.00,12.000000,,2013-06-30 07:53:00,